| time (UTC) | temp F | wind direction | speed knots | gust knots | rain 1hr in | rain 24hr in | rain mn in | humidity % | barometer mb |
| 20260510063026 | 51 | 200 | 0.0 | 0.0 | 0.00 | 0.43 | 0.01 | 90 | 1012.4 |
| 20260510061528 | 51 | 281 | 0.0 | 0.0 | 0.00 | 0.43 | 0.01 | 91 | 1012.4 |
| 20260510060036 | 50 | 281 | 0.0 | 0.0 | 0.00 | 0.43 | 0.01 | 90 | 1012.4 |
| 20260510054510 | 50 | 281 | 0.9 | 2.6 | 0.01 | 0.43 | 0.01 | 90 | 1012.5 |
| 20260510053007 | 49 | 280 | 0.9 | 2.6 | 0.01 | 0.43 | 0.01 | 90 | 1012.2 |
| 20260510051504 | 49 | 329 | 0.0 | 2.6 | 0.01 | 0.43 | 0.01 | 90 | 1012.2 |
| 20260510050100 | 48 | 290 | 0.0 | 1.7 | 0.01 | 0.43 | 0.01 | 90 | 1012.2 |
| 20260510044559 | 48 | 67 | 0.0 | 1.7 | 0.00 | 0.43 | 0.00 | 89 | 1012.2 |
| 20260510043143 | 48 | 65 | 0.0 | 1.7 | 0.00 | 0.43 | 0.00 | 89 | 1012.3 |
| 20260510041557 | 48 | 189 | 0.0 | 1.7 | 0.00 | 0.43 | 0.00 | 89 | 1012.4 |
| 20260510040056 | 48 | 272 | 0.9 | 4.3 | 0.00 | 0.43 | 0.00 | 89 | 1012.3 |
| 20260510034556 | 49 | 234 | 0.9 | 3.5 | 0.00 | 0.43 | 0.00 | 89 | 1012.2 |
| 20260510033056 | 48 | 65 | 0.0 | 2.6 | 0.00 | 0.43 | 0.00 | 88 | 1012.2 |
| 20260510031621 | 49 | 255 | 0.9 | 2.6 | 0.00 | 0.43 | 0.00 | 88 | 1012.3 |
| 20260510030052 | 48 | 84 | 0.0 | 2.6 | 0.00 | 0.43 | 0.00 | 88 | 1012.4 |
| 20260510024546 | 49 | 30 | 0.0 | 2.6 | 0.00 | 0.43 | 0.00 | 87 | 1012.5 |
| 20260510023051 | 49 | 134 | 0.0 | 1.7 | 0.00 | 0.43 | 0.00 | 87 | 1012.7 |
| 20260510021544 | 50 | 269 | 0.9 | 2.6 | 0.00 | 0.43 | 0.00 | 87 | 1012.8 |
| 20260510020038 | 50 | 252 | 0.9 | 3.5 | 0.00 | 0.43 | 0.00 | 87 | 1012.9 |
| 20260510014536 | 51 | 266 | 0.0 | 2.6 | 0.00 | 0.43 | 0.00 | 87 | 1012.7 |
| 20260510013037 | 51 | 275 | 1.7 | 3.5 | 0.00 | 0.43 | 0.00 | 86 | 1012.7 |
| 20260510011538 | 51 | 68 | 0.0 | 1.7 | 0.00 | 0.43 | 0.00 | 86 | 1012.7 |
| 20260510010037 | 51 | 68 | 0.9 | 1.7 | 0.00 | 0.43 | 0.00 | 86 | 1012.8 |
| 20260510004533 | 51 | 68 | 0.0 | 0.0 | 0.00 | 0.43 | 0.00 | 86 | 1012.9 |
| 20260510003030 | 51 | 68 | 0.0 | 0.9 | 0.00 | 0.43 | 0.00 | 86 | 1013.2 |
| 20260510001529 | 51 | 68 | 0.9 | 1.7 | 0.00 | 0.43 | 0.00 | 86 | 1013.0 |
| 20260510000027 | 52 | 68 | 0.9 | 1.7 | 0.00 | 0.43 | 0.00 | 85 | 1013.3 |
| 20260509234525 | 52 | 68 | 0.0 | 1.7 | 0.00 | 0.43 | 0.00 | 85 | 1013.5 |
| 20260509233023 | 52 | 68 | 0.0 | 0.9 | 0.00 | 0.43 | 0.00 | 85 | 1013.6 |
| 20260509231522 | 52 | 68 | 0.0 | 0.0 | 0.00 | 0.43 | 0.00 | 85 | 1013.7 |
| 20260509230021 | 52 | 68 | 0.0 | 1.7 | 0.00 | 0.43 | 0.00 | 85 | 1013.9 |
| 20260509224520 | 52 | 68 | 0.9 | 2.6 | 0.00 | 0.43 | 0.00 | 85 | 1013.8 |
| 20260509223025 | 52 | 68 | 0.0 | 0.0 | 0.00 | 0.43 | 0.00 | 86 | 1013.7 |
| 20260509221525 | 52 | 68 | 0.0 | 1.7 | 0.00 | 0.43 | 0.00 | 86 | 1013.7 |
| 20260509220017 | 52 | 68 | 0.9 | 1.7 | 0.00 | 0.43 | 0.00 | 87 | 1013.6 |
| 20260509214514 | 52 | 68 | 0.0 | 0.9 | 0.00 | 0.43 | 0.43 | 87 | 1013.6 |
| 20260509213015 | 52 | 68 | 0.9 | 3.5 | 0.00 | 0.43 | 0.43 | 87 | 1013.6 |
| 20260509211527 | 52 | 68 | 0.0 | 1.7 | 0.00 | 0.43 | 0.43 | 88 | 1013.5 |
| 20260509210113 | 52 | 68 | 1.7 | 4.3 | 0.00 | 0.43 | 0.43 | 88 | 1013.5 |
| 20260509204512 | 52 | 68 | 0.0 | 4.3 | 0.00 | 0.43 | 0.43 | 88 | 1013.4 |
| 20260509203029 | 52 | 68 | 0.9 | 4.3 | 0.00 | 0.43 | 0.43 | 88 | 1012.9 |
| 20260509201512 | 52 | 340 | 1.7 | 4.3 | 0.00 | 0.43 | 0.43 | 88 | 1012.6 |
| 20260509200011 | 52 | 332 | 1.7 | 3.5 | 0.00 | 0.43 | 0.43 | 88 | 1012.4 |
| 20260509194510 | 52 | 321 | 2.6 | 7.0 | 0.01 | 0.43 | 0.43 | 88 | 1012.2 |
| 20260509193010 | 52 | 301 | 0.0 | 2.6 | 0.01 | 0.43 | 0.43 | 89 | 1012.1 |
| 20260509191512 | 52 | 346 | 4.3 | 11.3 | 0.02 | 0.43 | 0.43 | 89 | 1011.9 |
| 20260509190008 | 52 | 12 | 7.0 | 11.3 | 0.02 | 0.43 | 0.43 | 89 | 1011.5 |
| 20260509184509 | 52 | 17 | 8.7 | 12.2 | 0.02 | 0.42 | 0.42 | 90 | 1011.4 |
| 20260509183013 | 52 | 24 | 8.7 | 13.0 | 0.03 | 0.42 | 0.42 | 90 | 1011.2 |
| 20260509181506 | 52 | 25 | 7.8 | 11.3 | 0.05 | 0.41 | 0.41 | 90 | 1011.1 |
| 20260509180005 | 52 | 11 | 7.0 | 10.4 | 0.08 | 0.41 | 0.41 | 89 | 1011.0 |
| 20260509174506 | 52 | 18 | 7.0 | 9.6 | 0.12 | 0.40 | 0.40 | 89 | 1010.9 |
| 20260509173002 | 52 | 22 | 2.6 | 4.3 | 0.15 | 0.39 | 0.39 | 88 | 1011.3 |
| 20260509171501 | 52 | 180 | 0.0 | 2.6 | 0.20 | 0.36 | 0.36 | 88 | 1011.9 |
| 20260509164701 | 53 | 194 | 4.3 | 10.4 | 0.27 | 0.28 | 0.28 | 87 | 1012.5 |
| 20260509163107 | 54 | 194 | 4.3 | 10.4 | 0.24 | 0.24 | 0.24 | 86 | 1012.7 |
| 20260509163001 | 54 | 186 | 4.3 | 10.4 | 0.24 | 0.24 | 0.24 | 86 | 1012.7 |
| 20260509161557 | 54 | 196 | 4.3 | 8.7 | 0.17 | 0.17 | 0.17 | 85 | 1012.9 |
| 20260509160101 | 55 | 216 | 6.1 | 12.2 | 0.09 | 0.09 | 0.09 | 84 | 1012.9 |
| 20260509154555 | 56 | 204 | 6.1 | 9.6 | 0.01 | 0.01 | 0.01 | 82 | 1012.9 |
| 20260509153055 | 56 | 84 | 0.0 | 7.0 | 0.00 | 0.00 | 0.00 | 79 | 1012.0 |
| 20260509151554 | 56 | 57 | 5.2 | 13.0 | 0.00 | 0.00 | 0.00 | 79 | 1010.9 |
| 20260509150052 | 56 | 76 | 7.0 | 13.0 | 0.00 | 0.00 | 0.00 | 78 | 1010.8 |
| 20260509144551 | 57 | 64 | 9.6 | 13.0 | 0.00 | 0.00 | 0.00 | 77 | 1011.0 |
| 20260509143052 | 57 | 67 | 6.1 | 9.6 | 0.00 | 0.00 | 0.00 | 76 | 1011.6 |
| 20260509141546 | 58 | 102 | 5.2 | 8.7 | 0.00 | 0.00 | 0.00 | 76 | 1012.1 |
| 20260509140048 | 58 | 82 | 5.2 | 8.7 | 0.00 | 0.00 | 0.00 | 75 | 1012.3 |
| 20260509134551 | 59 | 77 | 0.9 | 3.5 | 0.00 | 0.00 | 0.00 | 74 | 1012.4 |
| 20260509133054 | 59 | 14 | 0.9 | 3.5 | 0.00 | 0.00 | 0.00 | 74 | 1012.6 |
| 20260509131542 | 59 | 211 | 2.6 | 7.8 | 0.00 | 0.00 | 0.00 | 73 | 1012.9 |
| 20260509130041 | 59 | 121 | 2.6 | 8.7 | 0.00 | 0.00 | 0.00 | 72 | 1012.8 |
| 20260509124539 | 59 | 109 | 2.6 | 8.7 | 0.00 | 0.00 | 0.00 | 73 | 1012.4 |
| 20260509123038 | 59 | 140 | 0.9 | 6.1 | 0.00 | 0.00 | 0.00 | 73 | 1012.6 |
| 20260509121539 | 60 | 186 | 1.7 | 7.0 | 0.00 | 0.00 | 0.00 | 73 | 1013.0 |
| 20260509120036 | 60 | 195 | 2.6 | 8.7 | 0.00 | 0.00 | 0.00 | 72 | 1013.3 |
| 20260509114535 | 60 | 184 | 2.6 | 6.1 | 0.00 | 0.00 | 0.00 | 73 | 1013.6 |
| 20260509113033 | 60 | 180 | 4.3 | 8.7 | 0.00 | 0.00 | 0.00 | 73 | 1013.7 |
| 20260509111532 | 59 | 198 | 3.5 | 7.8 | 0.00 | 0.00 | 0.00 | 72 | 1013.6 |
| 20260509110030 | 61 | 126 | 2.6 | 7.0 | 0.00 | 0.00 | 0.00 | 67 | 1013.6 |
| 20260509104534 | 61 | 117 | 1.7 | 7.0 | 0.00 | 0.00 | 0.00 | 68 | 1013.8 |
| 20260509103029 | 61 | 127 | 1.7 | 6.1 | 0.00 | 0.00 | 0.00 | 68 | 1013.9 |
| 20260509101528 | 60 | 107 | 5.2 | 8.7 | 0.00 | 0.00 | 0.00 | 68 | 1013.9 |
| 20260509100026 | 60 | 130 | 4.3 | 9.6 | 0.00 | 0.00 | 0.00 | 68 | 1013.8 |
| 20260509094525 | 60 | 77 | 6.1 | 11.3 | 0.00 | 0.00 | 0.00 | 67 | 1013.7 |
| 20260509093022 | 60 | 78 | 6.1 | 10.4 | 0.00 | 0.00 | 0.00 | 67 | 1013.5 |
| 20260509091527 | 58 | 51 | 4.3 | 8.7 | 0.00 | 0.00 | 0.00 | 71 | 1013.4 |
| 20260509090015 | 57 | 64 | 2.6 | 7.0 | 0.00 | 0.00 | 0.00 | 72 | 1013.7 |
| 20260509084520 | 57 | 39 | 4.3 | 8.7 | 0.00 | 0.00 | 0.00 | 72 | 1013.6 |
| 20260509083013 | 57 | 111 | 5.2 | 8.7 | 0.00 | 0.00 | 0.00 | 73 | 1013.4 |
| 20260509081510 | 56 | 50 | 2.6 | 8.7 | 0.00 | 0.00 | 0.00 | 75 | 1013.6 |
| 20260509080004 | 56 | 82 | 2.6 | 8.7 | 0.00 | 0.00 | 0.00 | 77 | 1013.5 |
| 20260509074502 | 55 | 61 | 3.5 | 6.1 | 0.00 | 0.00 | 0.00 | 79 | 1013.5 |
| 20260509073206 | 54 | 61 | 1.7 | 4.3 | 0.00 | 0.00 | 0.00 | 80 | 1013.7 |
| 20260509071557 | 54 | 90 | 2.6 | 5.2 | 0.00 | 0.00 | 0.00 | 80 | 1013.7 |
| 20260509070056 | 53 | 76 | 4.3 | 7.0 | 0.00 | 0.00 | 0.00 | 79 | 1013.8 |
| 20260509064553 | 53 | 88 | 3.5 | 7.8 | 0.00 | 0.00 | 0.00 | 79 | 1013.9 |